Temp
67 65 64 64 64 64 64 63 64 63 63 64 65 66 65 65 66 66 66 66 65 65 65 65 65 65 66 66 66 67 66 65 65 65 65 64 64 63 63 63 63 63
64 64 64 64 63 63 63 63 63 63 63 64 65 65 65 65 65 65 65 65 66 65 65 65 65 65 65 66 65 65 65 64 64 66 65 64 64 64 63 63 64 64
64 63 63 62 62 62 62 63 63 64 64 65 65 65 65 65 64 65 65 65 65 65 64 64 64 65 65 65 65 65 64 64 63 65 65 64 64 63 64 64 64 63
63 63 63 63 63 63 64 64 65 65 65 64 64 65 65 65 65 65 64 65 65 64 64 64 64 64 65 65 65 64 64 64 64 65 64 65 64 64 63 64 63 64
63 63 64 65 66 66 66 65 64 64 64 64 64 65 65 65 65 65 65 64 64 64 64 64 64 64 64 64 64 63 63 63 64 64 64 63 63 63 63 63 62 62
66 67 67 67 66 65 64 65 65 64 64 63 64 65 64 65 65 65 64 64 64 64 64 64 64 63 64 64 63 63 62 63 63 63 63 62 63 63 63 62 62 61
64 64 64 65 64 64 64 63 64 64 64 65 65 64 65 64 64 65 65 64 65 64 64 63 63 62 63 63 62 62 62 62 62 63 62 62 62 62 63 62 61 61
63 64 64 64 63 64 63 64 64 63 64 64 63 64 65 65 65 64 65 64 64 64 63 63 63 63 62 62 61 61 61 61 61 62 61 61 61 61 61 61 60 61
63 63 63 63 63 63 63 63 63 64 65 64 64 64 64 65 64 64 64 65 64 63 63 62 62 62 61 61 61 61 61 61 61 61 60 60 60 60 61 61 60 59
63 63 63 62 62 62 62 63 63 64 64 64 64 64 63 63 64 65 64 64 63 62 62 61 60 60 60 61 61 61 61 61 62 61 61 61 60 60 60 60 60 59
62 62 61 61 61 62 61 62 63 63 64 64 63 63 64 64 64 65 64 63 61 61 61 60 59 59 58 59 59 60 60 61 61 61 61 61 60 60 60 60 59 58
61 61 61 61 61 61 61 62 63 63 63 64 65 63 63 63 63 63 63 63 62 61 60 60 59 58 57 57 58 59 59 60 61 60 61 61 60 61 61 60 59 59
62 61 61 61 61 61 62 62 63 63 63 63 64 63 63 62 62 62 62 62 61 60 59 58 57 56 55 54 55 57 58 60 60 60 61 60 60 61 61 60 60 59
62 62 62 62 62 62 62 62 62 62 62 62 63 62 62 62 62 62 62 62 60 60 59 57 56 55 53 53 54 55 56 60 60 59 60 60 60 60 60 60 59 58
62 63 63 63 63 62 62 61 62 62 62 62 62 61 61 63 63 63 62 61 61 60 58 56 54 52 51 49 50 52 54 58 60 60 59 59 59 59 60 59 59 58
63 63 63 63 63 62 62 62 62 61 61 62 61 62 62 62 62 62 62 61 60 59 57 55 53 52 45 42 42 47 51 56 60 60 60 59 58 58 58 59 58 58
64 63 63 63 63 62 62 62 62 61 61 61 60 61 60 61 61 61 61 60 60 58 56 54 52 49 41 41 40 41 47 52 58 59 60 59 59 58 57 58 57 57
64 64 64 63 63 63 63 63 62 61 61 61 60 60 60 60 59 60 60 60 59 58 56 54 52 43 40 41 41 40 42 48 58 59 59 59 59 59 59 58 56 55
65 64 63 63 63 63 63 62 62 61 60 60 59 60 60 59 59 59 59 60 59 57 56 54 53 42 40 40 41 40 40 44 59 59 59 59 59 59 59 57 56 55
64 64 63 63 62 62 62 62 61 60 60 60 60 60 59 58 58 58 58 59 59 58 56 54 52 44 40 40 41 40 40 42 60 59 59 60 59 59 59 57 56 55
64 63 62 62 63 62 61 61 60 60 60 61 60 60 59 59 58 57 58 58 59 58 56 53 50 40 41 40 40 40 40 45 60 59 59 60 59 59 60 58 58 56
63 63 62 62 62 62 61 60 60 59 59 60 60 60 60 60 59 59 58 58 58 58 57 54 51 40 40 40 40 40 41 56 59 59 58 59 59 59 59 60 58 56
63 63 62 62 61 61 60 59 59 59 60 61 60 60 59 59 58 58 59 58 57 57 57 55 53 44 40 40 40 39 45 56 58 58 58 58 58 59 60 60 57 57
64 63 62 61 61 60 59 59 60 60 60 61 60 59 59 60 60 59 59 58 57 55 56 56 53 46 40 41 40 40 44 54 57 56 56 56 58 59 60 60 55 49
64 63 62 62 61 60 60 59 60 60 61 61 61 61 60 61 61 60 59 59 58 56 53 55 55 49 41 41 40 40 45 53 56 56 54 54 57 58 58 59 59 55
63 62 62 61 61 60 61 60 61 61 61 61 62 63 62 61 61 60 58 58 59 58 56 56 55 54 48 41 41 41 41 49 55 53 51 52 54 58 57 58 59 59
MSLP
1021.52 1021.76 1022.04 1022.16 1022.24 1022.28 1022.36 1022.48 1022.64 1022.84 1022.96 1022.92 1022.88 1022.92 1023.12 1023.24 1023.16 1023.12 1023.04 1023.04 1023.04 1022.96 1022.92 1022.80 1022.68 1022.56 1022.36 1022.20 1022.08 1021.88 1021.84 1021.88 1021.72 1021.64 1021.52 1021.48 1021.44 1021.36 1021.24 1021.16 1020.96 1020.80
1022.04 1022.12 1022.20 1022.36 1022.56 1022.68 1022.76 1022.80 1022.92 1023.04 1023.16 1023.00 1022.96 1023.24 1023.40 1023.40 1023.48 1023.40 1023.36 1023.28 1023.24 1023.24 1023.16 1023.04 1022.88 1022.72 1022.56 1022.40 1022.28 1022.16 1022.04 1022.04 1021.92 1021.72 1021.60 1021.60 1021.48 1021.28 1021.20 1021.12 1020.92 1020.80
1022.28 1022.48 1022.60 1022.76 1022.92 1023.00 1023.08 1023.12 1023.16 1023.20 1023.20 1023.20 1023.36 1023.48 1023.60 1023.68 1023.68 1023.72 1023.68 1023.60 1023.52 1023.44 1023.36 1023.24 1023.12 1022.92 1022.76 1022.60 1022.44 1022.36 1022.20 1022.20 1022.12 1021.88 1021.72 1021.64 1021.56 1021.48 1021.36 1021.16 1021.08 1020.92
1022.52 1022.64 1022.80 1022.88 1022.92 1023.00 1023.12 1023.12 1023.08 1023.16 1023.32 1023.52 1023.68 1023.72 1023.80 1023.84 1023.88 1023.88 1023.88 1023.76 1023.68 1023.60 1023.52 1023.44 1023.32 1023.16 1023.00 1022.84 1022.68 1022.56 1022.44 1022.32 1022.28 1022.04 1021.84 1021.72 1021.68 1021.60 1021.52 1021.36 1021.24 1021.00
1022.76 1022.88 1022.96 1022.88 1022.80 1022.88 1022.96 1023.16 1023.36 1023.56 1023.72 1023.80 1023.84 1023.88 1023.92 1024.00 1023.92 1023.96 1023.92 1023.92 1023.80 1023.72 1023.64 1023.56 1023.48 1023.40 1023.20 1023.04 1022.88 1022.80 1022.64 1022.52 1022.44 1022.24 1022.08 1022.00 1021.84 1021.76 1021.68 1021.60 1021.52 1021.32
1022.56 1022.60 1022.80 1022.84 1022.96 1023.12 1023.36 1023.48 1023.60 1023.76 1023.96 1024.04 1024.08 1024.08 1024.20 1024.16 1024.12 1024.08 1024.08 1024.04 1023.92 1023.80 1023.76 1023.72 1023.68 1023.56 1023.40 1023.24 1023.08 1023.00 1022.92 1022.80 1022.64 1022.44 1022.28 1022.16 1022.00 1021.88 1021.88 1021.84 1021.76 1021.56
1022.92 1023.12 1023.28 1023.36 1023.48 1023.60 1023.64 1023.80 1023.88 1023.92 1024.08 1024.16 1024.20 1024.32 1024.32 1024.40 1024.36 1024.32 1024.24 1024.12 1024.04 1024.04 1023.96 1023.88 1023.84 1023.76 1023.64 1023.48 1023.36 1023.24 1023.20 1023.12 1022.92 1022.68 1022.52 1022.36 1022.24 1022.12 1022.04 1022.04 1022.00 1021.80
1023.20 1023.28 1023.44 1023.56 1023.64 1023.72 1023.80 1023.92 1024.08 1024.24 1024.32 1024.40 1024.52 1024.48 1024.44 1024.52 1024.52 1024.48 1024.36 1024.32 1024.32 1024.28 1024.28 1024.20 1024.04 1024.04 1023.88 1023.72 1023.64 1023.48 1023.32 1023.28 1023.12 1022.96 1022.84 1022.64 1022.56 1022.40 1022.28 1022.24 1022.20 1022.00
1023.48 1023.60 1023.68 1023.80 1023.84 1023.92 1024.08 1024.16 1024.32 1024.40 1024.40 1024.52 1024.60 1024.72 1024.68 1024.64 1024.64 1024.60 1024.56 1024.44 1024.48 1024.52 1024.52 1024.48 1024.44 1024.28 1024.20 1024.00 1023.92 1023.76 1023.52 1023.36 1023.20 1023.12 1023.00 1022.88 1022.76 1022.60 1022.56 1022.48 1022.36 1022.28
1023.64 1023.72 1023.88 1023.96 1024.08 1024.24 1024.36 1024.40 1024.48 1024.56 1024.64 1024.72 1024.72 1024.76 1024.84 1024.88 1024.76 1024.72 1024.72 1024.64 1024.60 1024.72 1024.76 1024.84 1024.80 1024.72 1024.52 1024.36 1024.16 1023.96 1023.68 1023.44 1023.32 1023.20 1023.08 1023.00 1022.92 1022.84 1022.80 1022.64 1022.48 1022.44
1023.84 1023.96 1024.12 1024.24 1024.36 1024.48 1024.60 1024.64 1024.72 1024.76 1024.80 1024.80 1024.92 1024.88 1024.88 1024.92 1024.92 1024.80 1024.80 1024.84 1024.96 1025.04 1025.12 1025.20 1025.20 1025.12 1025.00 1024.80 1024.52 1024.28 1023.92 1023.60 1023.48 1023.36 1023.16 1023.08 1023.04 1022.88 1022.80 1022.72 1022.68 1022.60
1023.96 1024.12 1024.28 1024.44 1024.56 1024.72 1024.80 1024.80 1024.84 1024.92 1024.96 1024.96 1024.92 1025.00 1025.04 1025.04 1025.08 1025.08 1025.00 1025.04 1025.20 1025.32 1025.40 1025.52 1025.52 1025.52 1025.44 1025.28 1024.92 1024.56 1024.16 1023.76 1023.60 1023.52 1023.32 1023.28 1023.20 1022.96 1022.92 1022.92 1022.88 1022.84
1024.00 1024.20 1024.40 1024.52 1024.64 1024.76 1024.84 1024.96 1025.04 1025.08 1025.04 1025.12 1025.16 1025.12 1025.12 1025.16 1025.24 1025.28 1025.28 1025.36 1025.48 1025.60 1025.72 1025.84 1025.84 1025.88 1025.84 1025.68 1025.32 1024.96 1024.48 1023.92 1023.68 1023.56 1023.40 1023.44 1023.36 1023.16 1023.12 1023.08 1023.08 1023.04
1024.16 1024.28 1024.44 1024.56 1024.68 1024.80 1024.92 1025.04 1025.16 1025.28 1025.36 1025.40 1025.40 1025.36 1025.32 1025.28 1025.32 1025.36 1025.44 1025.56 1025.72 1025.80 1025.96 1026.08 1026.20 1026.20 1026.24 1026.16 1025.84 1025.40 1024.92 1024.08 1023.76 1023.76 1023.64 1023.44 1023.40 1023.28 1023.28 1023.32 1023.32 1023.32
1024.20 1024.36 1024.48 1024.60 1024.72 1024.88 1025.08 1025.24 1025.32 1025.36 1025.40 1025.48 1025.56 1025.56 1025.52 1025.44 1025.40 1025.40 1025.48 1025.64 1025.76 1025.92 1026.08 1026.40 1026.52 1026.60 1026.72 1026.88 1026.56 1025.96 1025.44 1024.32 1023.96 1023.88 1023.72 1023.52 1023.56 1023.48 1023.36 1023.36 1023.44 1023.56
1024.24 1024.36 1024.48 1024.64 1024.80 1024.96 1025.12 1025.28 1025.40 1025.52 1025.60 1025.60 1025.64 1025.64 1025.68 1025.72 1025.68 1025.64 1025.64 1025.76 1025.84 1026.04 1026.32 1026.60 1026.88 1027.04 1027.36 1027.20 1027.00 1026.84 1026.04 1025.00 1024.08 1023.96 1023.80 1023.76 1023.76 1023.60 1023.48 1023.44 1023.52 1023.56
1024.16 1024.36 1024.52 1024.68 1024.84 1025.04 1025.16 1025.28 1025.52 1025.64 1025.76 1025.84 1025.88 1025.92 1025.92 1025.92 1025.92 1025.88 1025.92 1025.92 1026.08 1026.36 1026.60 1026.84 1027.20 1027.64 1027.68 1027.40 1027.04 1026.72 1026.44 1025.56 1024.48 1024.12 1023.88 1023.92 1023.76 1023.64 1023.52 1023.44 1023.64 1023.72
1024.16 1024.32 1024.52 1024.72 1024.84 1025.04 1025.20 1025.40 1025.56 1025.68 1025.84 1025.96 1026.00 1026.08 1026.08 1026.08 1026.12 1026.08 1026.04 1026.12 1026.24 1026.52 1026.88 1027.12 1027.48 1028.08 1027.80 1027.56 1027.20 1026.72 1026.40 1026.00 1024.60 1024.20 1024.00 1023.92 1023.80 1023.56 1023.40 1023.56 1023.80 1023.76
1024.16 1024.40 1024.60 1024.80 1024.96 1025.12 1025.32 1025.48 1025.64 1025.80 1025.96 1026.08 1026.20 1026.20 1026.24 1026.28 1026.32 1026.32 1026.28 1026.20 1026.32 1026.72 1027.12 1027.44 1027.64 1028.24 1027.96 1027.60 1027.24 1026.96 1026.36 1025.92 1024.56 1024.40 1024.12 1023.96 1023.76 1023.60 1023.44 1023.64 1023.76 1023.76
1024.20 1024.48 1024.72 1024.92 1025.08 1025.24 1025.40 1025.56 1025.76 1026.00 1026.08 1026.12 1026.16 1026.28 1026.36 1026.48 1026.52 1026.52 1026.48 1026.44 1026.48 1026.72 1027.20 1027.64 1027.96 1028.24 1028.08 1027.64 1027.36 1026.96 1026.32 1025.80 1024.56 1024.40 1024.16 1023.84 1023.88 1023.68 1023.48 1023.52 1023.72 1023.80
1024.32 1024.56 1024.80 1025.00 1025.16 1025.36 1025.52 1025.72 1025.92 1026.00 1026.04 1026.04 1026.12 1026.24 1026.36 1026.40 1026.56 1026.68 1026.76 1026.68 1026.60 1026.72 1027.08 1027.64 1028.24 1028.40 1028.08 1027.80 1027.44 1027.08 1026.36 1025.52 1024.52 1024.36 1024.12 1023.88 1023.84 1023.68 1023.28 1023.44 1023.44 1023.72
1024.40 1024.72 1024.96 1025.12 1025.32 1025.48 1025.68 1025.88 1026.04 1026.12 1026.16 1026.16 1026.20 1026.32 1026.40 1026.44 1026.60 1026.68 1026.80 1026.88 1026.84 1026.80 1026.96 1027.44 1028.16 1028.40 1028.16 1027.92 1027.56 1027.16 1026.48 1025.08 1024.60 1024.44 1024.24 1023.92 1023.84 1023.68 1023.44 1023.24 1023.36 1023.68
1024.48 1024.76 1025.00 1025.16 1025.36 1025.52 1025.80 1026.00 1026.08 1026.08 1026.12 1026.12 1026.24 1026.32 1026.40 1026.52 1026.68 1026.76 1026.88 1027.08 1027.12 1027.04 1026.96 1027.24 1027.84 1028.28 1028.20 1028.04 1027.68 1027.36 1026.64 1025.32 1024.80 1024.64 1024.36 1023.96 1023.76 1023.64 1023.20 1023.00 1023.56 1023.68
1024.56 1024.80 1025.08 1025.24 1025.44 1025.68 1025.92 1026.08 1026.12 1026.12 1026.20 1026.16 1026.20 1026.28 1026.36 1026.40 1026.48 1026.68 1026.84 1027.08 1027.32 1027.40 1027.32 1027.12 1027.64 1028.20 1028.20 1028.08 1027.84 1027.56 1027.04 1025.92 1025.04 1025.00 1024.80 1024.36 1023.68 1023.56 1023.20 1023.00 1023.64 1024.04
1024.60 1024.84 1025.08 1025.32 1025.56 1025.88 1025.96 1026.08 1026.12 1026.20 1026.20 1026.16 1026.16 1026.20 1026.24 1026.24 1026.32 1026.48 1026.68 1026.88 1027.16 1027.40 1027.60 1027.24 1027.28 1027.80 1028.08 1028.08 1027.96 1027.72 1027.32 1026.40 1025.52 1025.36 1025.24 1025.04 1023.96 1023.44 1023.32 1023.04 1023.08 1023.36
1024.76 1025.04 1025.28 1025.48 1025.72 1025.88 1025.96 1026.04 1026.12 1026.16 1026.16 1026.00 1025.92 1025.84 1026.04 1026.16 1026.32 1026.56 1026.72 1026.80 1026.84 1026.96 1027.24 1027.28 1027.28 1027.44 1027.96 1027.96 1027.88 1027.68 1027.56 1027.04 1026.00 1025.88 1025.76 1025.32 1024.76 1023.56 1023.44 1023.16 1022.96 1022.88
Wind_Speed
6 6 6 6 6 6 6 7 6 6 5 5 5 6 6 6 6 7 7 7 8 8 7 7 7 7 6 6 6 5 6 6 5 5 6 7 5 6 6 7 8 7
7 7 6 7 6 6 6 7 7 6 6 5 6 6 6 6 7 7 7 7 7 8 7 7 7 8 7 6 6 6 6 7 7 5 6 7 7 7 8 9 8 9
8 8 8 8 7 8 8 7 7 6 6 6 6 6 5 5 6 6 6 6 6 7 7 7 7 8 8 7 7 6 6 7 7 7 6 6 7 7 8 8 8 9
8 8 8 8 7 8 7 7 7 6 6 6 6 5 5 5 5 6 5 6 6 7 7 7 8 7 8 8 7 7 7 7 8 8 7 7 7 8 8 8 8 8
8 8 7 7 8 8 8 7 7 7 6 6 5 5 5 5 5 5 5 5 6 6 7 8 8 8 8 7 8 7 8 7 8 8 7 8 7 7 7 8 9 9
8 8 8 8 8 8 7 7 7 7 7 6 5 5 5 5 5 5 6 6 6 7 7 7 8 8 8 8 7 8 8 7 8 9 9 8 8 8 7 8 9 9
9 9 9 8 8 8 8 7 7 7 6 6 5 5 5 5 5 6 6 6 7 8 8 8 8 8 8 8 8 8 8 8 9 9 9 8 8 9 8 8 9 9
8 8 8 7 8 8 8 7 7 6 6 6 6 5 5 5 5 4 5 7 7 8 9 9 9 9 9 8 8 8 8 6 8 9 9 9 8 9 9 8 9 10
8 8 8 8 8 7 8 7 6 6 5 5 5 5 5 5 5 6 6 7 7 8 9 9 10 9 9 9 8 9 8 8 8 8 8 8 9 9 10 9 9 9
8 8 8 8 8 7 7 7 6 6 6 5 5 5 5 5 6 6 6 7 8 9 10 10 10 10 10 9 10 9 8 8 8 8 8 8 9 9 9 9 10 9
9 8 8 8 8 7 7 7 6 6 5 6 5 5 5 5 5 5 7 7 8 9 10 10 10 11 11 11 10 9 9 8 8 8 8 8 8 8 9 9 10 10
9 9 9 9 8 8 7 6 6 6 5 5 5 6 6 6 6 6 6 8 9 9 9 10 10 11 12 12 11 10 9 8 8 8 8 8 9 9 9 9 10 11
9 8 8 8 7 7 6 6 6 6 6 6 6 6 6 6 6 7 7 8 8 9 10 10 11 12 12 12 11 11 10 8 8 8 8 7 8 9 9 10 11 11
8 8 8 8 7 7 7 7 6 6 6 6 6 6 6 6 6 6 7 7 7 8 9 10 11 12 13 13 12 11 10 9 8 8 8 8 8 9 9 10 10 11
8 8 7 8 8 8 7 7 7 6 6 6 5 6 5 6 6 7 7 8 8 8 10 10 10 11 11 10 11 12 11 8 8 8 8 8 9 9 9 10 10 10
9 8 8 8 8 8 7 7 7 6 6 6 6 6 6 6 6 6 7 8 9 9 9 9 10 10 12 18 14 9 10 8 7 8 8 8 9 8 9 10 11 11
9 9 8 8 8 8 7 8 7 6 6 7 7 6 6 6 6 7 7 7 9 10 9 9 10 9 15 16 18 17 10 10 7 7 7 7 8 8 9 10 11 11
9 9 9 9 8 8 8 8 7 7 7 7 6 7 6 6 6 6 6 7 8 9 10 9 9 12 15 15 16 18 15 11 7 7 7 7 8 8 8 10 10 11
10 10 9 9 9 8 8 8 8 8 7 7 7 7 7 7 7 6 6 6 7 9 10 10 10 12 14 16 16 17 18 13 7 7 7 7 8 9 9 10 10 10
10 10 9 9 9 8 8 8 8 7 6 6 6 6 7 7 7 7 6 6 6 8 8 9 10 11 13 16 16 19 18 16 5 6 7 8 9 9 8 9 10 11
11 10 10 9 9 8 8 8 7 7 7 6 6 6 6 6 6 7 6 6 5 6 7 8 8 12 13 16 16 18 20 16 6 6 7 7 8 9 9 10 10 10
10 10 9 9 9 9 8 8 7 7 6 6 6 6 6 6 6 6 7 6 5 5 6 8 8 12 13 15 16 18 20 9 9 7 8 7 8 9 9 9 9 9
10 10 9 9 9 9 8 7 7 6 6 5 6 5 6 6 6 6 6 7 7 5 5 6 8 10 12 14 15 18 15 10 9 8 8 8 8 9 8 9 7 8
10 10 9 9 8 8 8 7 6 6 5 4 5 5 5 5 5 5 5 6 7 7 6 5 7 10 11 11 14 16 16 11 8 9 9 10 8 9 9 10 8 13
10 9 9 8 9 8 7 7 6 5 5 5 5 5 5 5 5 5 5 4 5 6 6 6 6 8 10 9 11 12 12 11 9 9 9 9 10 9 9 9 10 5
9 9 9 8 8 7 6 6 5 5 4 4 4 4 4 4 4 5 5 4 4 4 4 6 7 6 7 8 10 11 11 10 9 9 10 10 10 11 8 10 9 10
Wind_Direction
86 96 97 83 66 79 88 88 86 86 86 79 73 65 54 49 40 42 41 43 38 30 31 26 27 25 19 30 16 21 32 14 22 6 14 9 8 358 1 357 356 351
90 91 97 101 100 85 82 78 88 93 87 78 70 68 60 53 49 43 37 42 40 40 32 31 29 29 28 26 23 24 27 24 17 8 10 14 5 1 6 354 1 350
86 87 83 88 95 94 90 90 90 90 89 77 70 68 67 59 56 51 45 40 45 40 39 34 32 33 32 28 28 26 26 25 17 5 4 15 7 8 5 356 5 352
88 90 95 97 99 98 97 103 101 90 82 80 73 72 71 65 61 59 52 47 46 45 42 37 34 30 30 28 28 28 23 26 15 6 12 14 16 7 7 359 0 354
102 99 99 105 106 104 102 94 86 82 82 79 77 73 70 67 64 60 58 51 47 47 40 41 35 32 27 29 24 27 19 20 14 10 12 14 15 8 10 5 2 360
98 100 98 92 91 93 95 96 94 95 87 80 78 80 71 63 63 62 58 55 49 45 46 40 38 30 28 26 25 25 21 12 11 9 10 15 9 13 12 6 4 2
101 96 98 97 95 91 87 82 79 79 80 82 80 77 79 71 63 61 55 50 53 47 38 39 34 30 25 21 21 20 20 12 10 9 10 15 6 10 12 6 6 0
100 97 92 94 94 92 92 90 88 84 87 83 76 66 69 71 70 63 64 60 51 45 43 36 30 29 19 19 14 12 13 13 9 8 9 12 5 11 9 9 4 1
105 100 98 96 94 90 86 88 84 85 84 87 85 82 69 69 67 63 56 57 56 49 43 35 30 23 19 12 13 5 5 11 9 8 8 8 7 13 9 8 5 5
100 102 102 99 95 89 88 85 88 88 84 75 75 82 84 69 66 67 66 57 52 51 42 36 26 21 16 10 10 1 1 8 6 10 10 9 11 12 7 8 4 6
104 100 97 94 91 91 92 94 87 81 79 83 82 75 71 74 71 69 67 61 55 46 42 34 27 21 13 7 5 1 357 5 8 9 10 13 10 8 10 12 6 9
103 101 99 98 96 94 90 88 89 89 86 78 76 78 74 73 70 58 57 62 54 50 42 33 28 20 14 5 0 359 356 1 12 8 10 17 6 9 14 10 11 7
104 103 100 97 95 95 97 93 88 86 84 78 72 68 71 73 71 69 63 61 58 51 41 33 27 20 12 6 1 1 355 355 11 6 14 19 5 12 11 13 10 8
108 106 102 100 100 98 92 95 94 88 81 75 70 67 66 68 69 74 73 65 59 52 45 34 26 20 15 6 1 358 349 349 12 10 10 12 12 13 13 15 10 8
115 109 110 110 107 103 100 94 89 87 87 86 82 74 63 63 68 71 71 69 61 54 45 37 29 19 12 358 356 356 345 341 13 6 6 11 14 10 7 14 8 7
117 117 113 112 110 106 103 100 97 93 88 82 76 71 70 70 70 67 70 66 57 51 48 40 29 19 356 349 347 355 342 342 352 12 7 13 10 6 7 9 4 1
118 118 117 112 108 107 110 105 98 94 87 81 76 72 72 73 72 74 69 64 60 52 46 43 31 11 351 351 346 346 347 331 339 10 11 9 12 3 4 6 1 360
122 121 117 114 114 109 104 104 103 97 92 86 85 80 77 76 71 68 71 70 65 58 49 42 33 10 354 350 350 345 342 333 323 17 2 8 13 357 7 9 1 359
122 119 115 113 108 106 105 105 103 101 96 92 85 82 80 72 69 66 64 68 75 65 52 42 30 12 354 355 350 348 338 332 332 22 357 3 10 357 10 6 5 359
122 118 113 112 112 111 111 105 102 99 101 101 100 93 85 79 73 67 65 65 68 74 64 48 31 7 0 358 351 349 339 332 348 10 6 5 12 1 7 11 8 0
124 121 117 115 113 111 108 106 104 109 106 99 96 90 86 83 79 74 64 59 64 74 74 58 40 15 7 359 355 349 342 317 13 354 7 5 13 358 4 9 12 1
123 122 121 120 119 117 113 110 106 103 102 102 101 95 90 89 83 76 70 60 56 60 72 66 54 28 10 4 356 352 339 325 18 359 4 5 10 4 8 356 24 5
131 129 126 122 120 118 116 113 114 110 107 107 103 100 98 91 87 81 73 66 53 43 53 70 61 37 21 7 359 354 347 347 14 6 358 358 12 359 356 9 58 17
131 130 129 127 123 118 114 115 114 109 103 99 99 101 97 97 98 94 91 81 67 51 24 52 72 54 31 13 0 356 347 345 4 9 358 351 360 0 356 5 84 83
133 130 129 126 121 119 120 119 115 114 121 119 114 110 102 97 89 89 91 88 88 81 41 29 59 73 47 18 5 357 353 348 358 9 359 356 344 2 349 2 354 66
127 127 127 128 126 125 121 115 114 112 109 105 105 101 99 100 100 89 80 76 74 91 81 52 38 58 64 29 8 355 354 343 357 3 355 347 339 341 360 346 352 350